Weather History for Boulder City, NV

Change the Weather History Date:

Monday, August 11, 2014

  Actual Average (KLAS) Record (KLAS)
Temperature  
Mean Temperature 88 °F 92 °F  
Max Temperature 100 °F 103 °F 116 °F (1940)
Min Temperature 77 °F 80 °F 60 °F (1948)
Degree Days  
Heating Degree Days 0 0  
Month to date heating degree days 0  
Since 1 June heating degree days 1  
Since 1 July heating degree days 0  
Cooling Degree Days 24 26  
Month to date cooling degree days 297  
Year to date cooling degree days 2351  
Since 1 June cooling degree days 1801  
Growing Degree Days 38 (Base 50)    
Moisture  
Dew Point 54 °F    
Average Humidity 33    
Maximum Humidity 47    
Minimum Humidity 18    
Precipitation  
Precipitation 0.00 in 0.01 in 1.22 in (1941)
Month to date precipitation 0.13  
Year to date precipitation 2.61  
Snow  
Snow 0.00 in 0.00 in 0.00 in ()
Month to date snowfall 0.0  
Since 1 June snowfall 0.0  
Since 1 July snowfall 0.0  
Snow Depth -    
Sea Level Pressure  
Sea Level Pressure 29.97 in    
Wind  
Wind Speed 7 mph (NNW)    
Max Wind Speed 30 mph    
Max Gust Speed 38 mph    
Visibility 10 miles    
Events      
T = Trace of Precipitation, MM = Missing Value Source: NWS Daily Summary

Daily Weather History Graph

Daily Weather History Graph

Search for Another Location

Airport:

Trip Planner

Search our weather history database for the weather conditions in past years. The results will help you decide how hot, cold, wet, or windy it might be!

Date:

Astronomy

Aug. 11, 2014 Rise Set
Actual Time 5:54 AM PDT 7:33 PM PDT
Civil Twilight 5:27 AM PDT 8:01 PM PDT
Nautical Twilight 4:54 AM PDT 8:34 PM PDT
Astronomical Twilight 4:19 AM PDT 9:09 PM PDT
Moon 8:09 PM PDT (8/11) 7:01 AM PDT (8/11)
Length of Visible Light 14h 33m
Length of Day
13h 38m
Full, 98% of the Moon is Illuminated
Aug 11
Full
Aug 17
Last Quarter
Aug 25
New
Sep 2
First Quarter
Sep 8
Full

Hourly Weather History & Observations

Time (PDT) Temp. Heat Index Dew Point Humidity Pressure Visibility Wind Dir Wind Speed Gust Speed Precip Events Conditions
12:15 AM 86.0 °F - 51.8 °F 31% 29.97 in 10.0 mi East 5.8 mph - N/A   Clear
12:35 AM 82.4 °F 81.7 °F 55.4 °F 39% 29.97 in 10.0 mi North 3.5 mph - N/A   Clear
12:55 AM 82.4 °F 81.4 °F 53.6 °F 37% 29.97 in 10.0 mi North 4.6 mph - N/A   Clear
1:15 AM 82.4 °F 81.4 °F 53.6 °F 37% 29.97 in 10.0 mi NNW 3.5 mph - N/A   Clear
1:35 AM 82.4 °F - 51.8 °F 35% 29.96 in 10.0 mi NNE 5.8 mph - N/A   Clear
1:55 AM 82.4 °F 81.4 °F 53.6 °F 37% 29.96 in 10.0 mi Calm Calm - N/A   Clear
2:15 AM 78.8 °F - 55.4 °F 44% 29.96 in 10.0 mi Calm Calm - N/A   Clear
2:35 AM 78.8 °F - 55.4 °F 44% 29.95 in 10.0 mi NNW 3.5 mph - N/A   Clear
2:55 AM 82.4 °F - 51.8 °F 35% 29.94 in 10.0 mi Calm Calm - N/A   Clear
3:15 AM 78.8 °F - 53.6 °F 42% 29.94 in 10.0 mi Calm Calm - N/A   Clear
3:35 AM 78.8 °F - 57.2 °F 47% 29.94 in 10.0 mi Calm Calm - N/A   Clear
3:55 AM 78.8 °F - 55.4 °F 44% 29.95 in 10.0 mi Calm Calm - N/A   Clear
4:15 AM 78.8 °F - 57.2 °F 47% 29.95 in 10.0 mi Calm Calm - N/A   Clear
4:35 AM 78.8 °F - 57.2 °F 47% 29.95 in 10.0 mi Calm Calm - N/A   Clear
4:55 AM 77.0 °F - 55.4 °F 47% 29.96 in 10.0 mi Calm Calm - N/A   Clear
5:15 AM 77.0 °F - 55.4 °F 47% 29.96 in 10.0 mi Calm Calm - N/A   Clear
5:35 AM 78.8 °F - 53.6 °F 42% 29.96 in 10.0 mi NNW 5.8 mph - N/A   Clear
5:55 AM 78.8 °F - 53.6 °F 42% 29.96 in 10.0 mi NW 3.5 mph - N/A   Clear
6:15 AM 78.8 °F - 53.6 °F 42% 29.97 in 10.0 mi NNW 4.6 mph - N/A   Clear
6:35 AM 80.6 °F 80.3 °F 53.6 °F 39% 29.98 in 10.0 mi Calm Calm - N/A   Clear
6:55 AM 82.4 °F - 51.8 °F 35% 29.99 in 10.0 mi Calm Calm - N/A   Clear
7:15 AM 82.4 °F - 51.8 °F 35% 29.99 in 10.0 mi WNW 4.6 mph - N/A   Clear
7:35 AM 82.4 °F - 51.8 °F 35% 30.00 in 10.0 mi Calm Calm - N/A   Clear
7:55 AM 82.4 °F 82.0 °F 57.2 °F 42% 30.00 in 10.0 mi ENE 3.5 mph - N/A   Scattered Clouds
8:15 AM 86.0 °F 84.2 °F 53.6 °F 33% 30.00 in 10.0 mi Calm Calm - N/A   Clear
8:35 AM 87.8 °F 85.7 °F 53.6 °F 31% 30.01 in 10.0 mi Calm Calm - N/A   Clear
8:55 AM 87.8 °F - 51.8 °F 29% 30.01 in 10.0 mi Calm Calm - N/A   Clear
9:15 AM 91.4 °F - 50.0 °F 24% 30.01 in 10.0 mi SSE 3.5 mph - N/A   Clear
9:35 AM 93.2 °F - 50.0 °F 23% 30.01 in 10.0 mi SE 10.4 mph - N/A   Clear
9:55 AM 95.0 °F - 51.8 °F 23% 30.01 in 10.0 mi SE 8.1 mph - N/A   Clear
10:15 AM 93.2 °F - 51.8 °F 24% 30.01 in 10.0 mi South 6.9 mph 16.1 mph N/A   Partly Cloudy
10:35 AM 95.0 °F - 51.8 °F 23% 30.01 in 10.0 mi SE 10.4 mph - N/A   Partly Cloudy
10:55 AM 95.0 °F - 51.8 °F 23% 30.01 in 10.0 mi SSE 10.4 mph - N/A   Clear
11:15 AM 96.8 °F - 51.8 °F 22% 30.00 in 10.0 mi South 8.1 mph 16.1 mph N/A   Clear
11:35 AM 96.8 °F - 51.8 °F 22% 30.00 in 10.0 mi SE 6.9 mph - N/A   Partly Cloudy
11:55 AM 96.8 °F - 50.0 °F 20% 29.99 in 10.0 mi Calm Calm - N/A   Clear
12:15 PM 98.6 °F - 50.0 °F 19% 29.98 in 10.0 mi Variable 5.8 mph 11.5 mph N/A   Clear
12:35 PM 98.6 °F - 50.0 °F 19% 29.97 in 10.0 mi Variable 5.8 mph 11.5 mph N/A   Clear
12:55 PM 100.4 °F - 50.0 °F 18% 29.97 in 10.0 mi SSW 8.1 mph 16.1 mph N/A   Clear
1:55 PM 98.6 °F - 51.8 °F 21% 29.96 in 9.0 mi Calm Calm - N/A   Mostly Cloudy
2:15 PM 98.6 °F - 50.0 °F 19% 29.95 in 10.0 mi WSW 18.4 mph - N/A   Scattered Clouds
2:35 PM 98.6 °F - 50.0 °F 19% 29.95 in 10.0 mi WNW 21.9 mph 28.8 mph N/A   Clear
2:55 PM 98.6 °F - 51.8 °F 21% 29.95 in 10.0 mi NW 17.3 mph 24.2 mph N/A   Clear
3:35 PM 96.8 °F - 51.8 °F 22% 29.94 in 10.0 mi NW 15.0 mph 21.9 mph N/A   Clear
3:55 PM 96.8 °F - 51.8 °F 22% 29.93 in 10.0 mi NNW 26.5 mph - N/A   Clear
4:15 PM 95.0 °F 92.7 °F 53.6 °F 25% 29.94 in 10.0 mi NW 26.5 mph 34.5 mph N/A   Clear
4:35 PM 93.2 °F 90.8 °F 53.6 °F 26% 29.93 in 10.0 mi NW 27.6 mph 38.0 mph N/A   Clear
4:55 PM 91.4 °F 89.1 °F 53.6 °F 28% 29.93 in 10.0 mi NNW 29.9 mph 36.8 mph N/A   Clear
5:15 PM 91.4 °F 89.1 °F 53.6 °F 28% 29.93 in 10.0 mi NW 27.6 mph 38.0 mph N/A   Clear
5:35 PM 91.4 °F 89.1 °F 53.6 °F 28% 29.93 in 10.0 mi NNW 25.3 mph 33.4 mph N/A   Partly Cloudy
5:55 PM 91.4 °F 89.1 °F 53.6 °F 28% 29.93 in 10.0 mi NW 27.6 mph - N/A   Partly Cloudy
6:15 PM 89.6 °F 87.7 °F 55.4 °F 31% 29.93 in 10.0 mi NNW 26.5 mph - N/A   Scattered Clouds
6:35 PM 89.6 °F 87.7 °F 55.4 °F 31% 29.93 in 10.0 mi NNW 25.3 mph - N/A   Partly Cloudy
6:55 PM 87.8 °F 86.1 °F 55.4 °F 33% 29.94 in 10.0 mi NNW 21.9 mph - N/A   Clear
7:15 PM 87.8 °F 86.1 °F 55.4 °F 33% 29.95 in 10.0 mi NNW 20.7 mph 27.6 mph N/A   Clear
7:35 PM 86.0 °F 84.5 °F 55.4 °F 35% 29.95 in 10.0 mi NNW 23.0 mph - N/A   Clear
7:55 PM 86.0 °F 84.5 °F 55.4 °F 35% 29.96 in 10.0 mi NW 19.6 mph - N/A   Clear
8:15 PM 86.0 °F 84.9 °F 57.2 °F 37% 29.98 in 10.0 mi NNW 17.3 mph 27.6 mph N/A   Partly Cloudy
8:35 PM 86.0 °F 84.9 °F 57.2 °F 37% 29.99 in 10.0 mi NNW 10.4 mph - N/A   Mostly Cloudy
8:55 PM 86.0 °F 84.9 °F 57.2 °F 37% 30.00 in 10.0 mi NW 5.8 mph - N/A   Scattered Clouds
9:15 PM 84.2 °F 83.5 °F 57.2 °F 40% 30.00 in 10.0 mi NNE 5.8 mph - N/A   Clear
9:35 PM 86.0 °F 84.9 °F 57.2 °F 37% 30.01 in 10.0 mi NW 10.4 mph - N/A   Clear
9:55 PM 86.0 °F 84.9 °F 57.2 °F 37% 30.01 in 10.0 mi NNW 10.4 mph - N/A   Clear
10:35 PM 86.0 °F 84.9 °F 57.2 °F 37% 30.01 in 10.0 mi North 12.7 mph - N/A   Clear
10:55 PM 86.0 °F 84.9 °F 57.2 °F 37% 30.02 in 10.0 mi NNE 9.2 mph 16.1 mph N/A   Clear
11:15 PM 84.2 °F 83.5 °F 57.2 °F 40% 30.03 in 10.0 mi North 11.5 mph - N/A   Clear
11:35 PM 84.2 °F 83.8 °F 59.0 °F 42% 30.03 in 10.0 mi NNE 13.8 mph - N/A   Clear
11:55 PM 84.2 °F 83.8 °F 59.0 °F 42% 30.03 in 10.0 mi NNE 15.0 mph - N/A   Clear